| time (UTC) | temp F | wind direction | speed MPH | gust MPH | rain 1hr in | rain 24hr in | rain mn in | humidity % | barometer mb |
| 20260903184004 | 80 | 335 | 5.0 | 10.0 | 0.00 | 0.00 | 0.00 | 39 | 1013.6 |
| 20260903183504 | 80 | 337 | 5.0 | 10.0 | 0.00 | 0.00 | 0.00 | 40 | 1013.1 |
| 20260903183005 | 80 | 334 | 5.0 | 10.0 | 0.00 | 0.00 | 0.00 | 42 | 1013.4 |
| 20260903182004 | 80 | 322 | 5.0 | 9.0 | 0.00 | 0.00 | 0.00 | 43 | 1013.2 |
| 20260903181505 | 80 | 307 | 5.0 | 9.0 | 0.00 | 0.00 | 0.00 | 43 | 1013.1 |
| 20260903181004 | 81 | 317 | 4.0 | 9.0 | 0.00 | 0.00 | 0.00 | 43 | 1012.9 |
| 20260903180504 | 81 | 339 | 3.0 | 7.0 | 0.00 | 0.00 | 0.00 | 43 | 1013.0 |
| 20260903180005 | 81 | 336 | 2.0 | 6.0 | 0.00 | 0.00 | 0.00 | 43 | 1013.1 |
| 20260903175504 | 81 | 340 | 2.0 | 5.0 | 0.00 | 0.00 | 0.00 | 43 | 1013.2 |
| 20260903175004 | 82 | 340 | 3.0 | 8.0 | 0.00 | 0.00 | 0.00 | 42 | 1012.9 |
| 20260903174505 | 82 | 340 | 3.0 | 8.0 | 0.00 | 0.00 | 0.00 | 42 | 1012.9 |
| 20260903174004 | 82 | 350 | 1.0 | 5.0 | 0.00 | 0.00 | 0.00 | 40 | 1013.1 |
| 20260903173504 | 82 | 355 | 2.0 | 5.0 | 0.00 | 0.00 | 0.00 | 39 | 1013.0 |
| 20260903173005 | 82 | 353 | 2.0 | 5.0 | 0.00 | 0.00 | 0.00 | 39 | 1012.9 |
| 20260903172504 | 82 | 342 | 2.0 | 5.0 | 0.00 | 0.00 | 0.00 | 39 | 1013.0 |
| 20260903172004 | 82 | 346 | 2.0 | 5.0 | 0.00 | 0.00 | 0.00 | 39 | 1013.0 |
| 20260903171505 | 83 | 7 | 3.0 | 7.0 | 0.00 | 0.00 | 0.00 | 39 | 1013.0 |
| 20260903171004 | 83 | 358 | 3.0 | 8.0 | 0.00 | 0.00 | 0.00 | 40 | 1012.9 |
| 20260903170005 | 84 | 330 | 3.0 | 8.0 | 0.00 | 0.00 | 0.00 | 40 | 1013.0 |
| 20260903165504 | 84 | 355 | 4.0 | 8.0 | 0.00 | 0.00 | 0.00 | 39 | 1012.9 |
| 20260903165004 | 84 | 355 | 4.0 | 8.0 | 0.00 | 0.00 | 0.00 | 39 | 1013.0 |
| 20260903164505 | 84 | 347 | 3.0 | 8.0 | 0.00 | 0.00 | 0.00 | 38 | 1012.7 |
| 20260903164004 | 85 | 346 | 3.0 | 8.0 | 0.00 | 0.00 | 0.00 | 36 | 1012.8 |
| 20260903163504 | 85 | 1 | 2.0 | 6.0 | 0.00 | 0.00 | 0.00 | 35 | 1012.5 |
| 20260903163005 | 85 | 349 | 3.0 | 7.0 | 0.00 | 0.00 | 0.00 | 34 | 1012.7 |
| 20260903162504 | 85 | 343 | 5.0 | 13.0 | 0.00 | 0.00 | 0.00 | 33 | 1012.7 |
| 20260903162004 | 85 | 354 | 6.0 | 13.0 | 0.00 | 0.00 | 0.00 | 33 | 1012.7 |
| 20260903161508 | 86 | 351 | 5.0 | 10.0 | 0.00 | 0.00 | 0.00 | 32 | 1012.6 |
| 20260903161004 | 86 | 348 | 5.0 | 11.0 | 0.00 | 0.00 | 0.00 | 32 | 1012.7 |
| 20260903160527 | 87 | 346 | 5.0 | 11.0 | 0.00 | 0.00 | 0.00 | 32 | 1012.7 |
| 20260903160008 | 87 | 345 | 5.0 | 9.0 | 0.00 | 0.00 | 0.00 | 32 | 1012.4 |
| 20260903155505 | 87 | 5 | 5.0 | 9.0 | 0.00 | 0.00 | 0.00 | 32 | 1012.3 |
| 20260903155004 | 88 | 36 | 3.0 | 8.0 | 0.00 | 0.00 | 0.00 | 32 | 1012.3 |
| 20260903154505 | 88 | 52 | 2.0 | 6.0 | 0.00 | 0.00 | 0.00 | 32 | 1012.4 |
| 20260903154004 | 88 | 68 | 3.0 | 9.0 | 0.00 | 0.00 | 0.00 | 32 | 1012.4 |
| 20260903153504 | 88 | 83 | 5.0 | 10.0 | 0.00 | 0.00 | 0.00 | 32 | 1012.3 |
| 20260903153005 | 88 | 90 | 5.0 | 10.0 | 0.00 | 0.00 | 0.00 | 33 | 1012.3 |
| 20260903152504 | 88 | 90 | 4.0 | 10.0 | 0.00 | 0.00 | 0.00 | 33 | 1012.2 |
| 20260903152005 | 88 | 87 | 4.0 | 10.0 | 0.00 | 0.00 | 0.00 | 33 | 1012.2 |
| 20260903151505 | 89 | 84 | 4.0 | 10.0 | 0.00 | 0.00 | 0.00 | 33 | 1012.2 |
| 20260903151004 | 89 | 87 | 4.0 | 11.0 | 0.00 | 0.00 | 0.00 | 33 | 1012.1 |
| 20260903150504 | 89 | 12 | 6.0 | 14.0 | 0.00 | 0.00 | 0.00 | 33 | 1012.3 |
| 20260903150005 | 89 | 336 | 7.0 | 14.0 | 0.00 | 0.00 | 0.00 | 33 | 1012.0 |
| 20260903145504 | 89 | 350 | 6.0 | 11.0 | 0.00 | 0.00 | 0.00 | 31 | 1012.2 |
| 20260903145005 | 89 | 356 | 6.0 | 12.0 | 0.00 | 0.00 | 0.00 | 32 | 1012.3 |
| 20260903144504 | 89 | 11 | 6.0 | 12.0 | 0.00 | 0.00 | 0.00 | 31 | 1012.2 |
| 20260903144004 | 89 | 359 | 5.0 | 13.0 | 0.00 | 0.00 | 0.00 | 32 | 1012.1 |
| 20260903143504 | 89 | 342 | 7.0 | 16.0 | 0.00 | 0.00 | 0.00 | 32 | 1012.0 |
| 20260903143005 | 89 | 328 | 9.0 | 16.0 | 0.00 | 0.00 | 0.00 | 32 | 1012.2 |
| 20260903142504 | 89 | 326 | 8.0 | 16.0 | 0.00 | 0.00 | 0.00 | 31 | 1012.2 |
| 20260903141504 | 89 | 351 | 8.0 | 15.0 | 0.00 | 0.00 | 0.00 | 31 | 1012.2 |
| 20260903141004 | 89 | 344 | 7.0 | 16.0 | 0.00 | 0.00 | 0.00 | 31 | 1012.1 |
| 20260903140504 | 89 | 345 | 8.0 | 17.0 | 0.00 | 0.00 | 0.00 | 32 | 1011.9 |
| 20260903135504 | 90 | 334 | 8.0 | 21.0 | 0.00 | 0.00 | 0.00 | 32 | 1012.0 |
| 20260903135003 | 90 | 343 | 7.0 | 16.0 | 0.00 | 0.00 | 0.00 | 32 | 1012.0 |
| 20260903134504 | 90 | 353 | 7.0 | 17.0 | 0.00 | 0.00 | 0.00 | 32 | 1012.0 |
| 20260903134004 | 90 | 344 | 7.0 | 17.0 | 0.00 | 0.00 | 0.00 | 33 | 1012.0 |
| 20260903133004 | 90 | 353 | 6.0 | 15.0 | 0.00 | 0.00 | 0.00 | 32 | 1012.1 |
| 20260903132503 | 90 | 336 | 6.0 | 13.0 | 0.00 | 0.00 | 0.00 | 32 | 1011.9 |
| 20260903131504 | 90 | 344 | 7.0 | 13.0 | 0.00 | 0.00 | 0.00 | 31 | 1012.3 |
| 20260903131004 | 90 | 5 | 7.0 | 17.0 | 0.00 | 0.00 | 0.00 | 31 | 1012.4 |
| 20260903130005 | 90 | 356 | 7.0 | 14.0 | 0.00 | 0.00 | 0.00 | 33 | 1012.4 |
| 20260903125004 | 90 | 343 | 7.0 | 18.0 | 0.00 | 0.00 | 0.00 | 35 | 1012.6 |
| 20260903124504 | 90 | 334 | 8.0 | 21.0 | 0.00 | 0.00 | 0.00 | 35 | 1012.5 |
| 20260903124004 | 89 | 338 | 8.0 | 21.0 | 0.00 | 0.00 | 0.00 | 36 | 1012.5 |
| 20260903123504 | 90 | 332 | 8.0 | 19.0 | 0.00 | 0.00 | 0.00 | 37 | 1012.5 |
| 20260903123004 | 90 | 312 | 10.0 | 24.0 | 0.00 | 0.00 | 0.00 | 37 | 1012.5 |
| 20260903122504 | 90 | 324 | 9.0 | 24.0 | 0.00 | 0.00 | 0.00 | 37 | 1012.3 |
| 20260903122004 | 90 | 328 | 7.0 | 17.0 | 0.00 | 0.00 | 0.00 | 36 | 1012.6 |
| 20260903121505 | 90 | 317 | 8.0 | 18.0 | 0.00 | 0.00 | 0.00 | 37 | 1012.4 |
| 20260903121004 | 90 | 333 | 8.0 | 18.0 | 0.00 | 0.00 | 0.00 | 37 | 1012.8 |
| 20260903120004 | 91 | 333 | 9.0 | 17.0 | 0.00 | 0.00 | 0.00 | 35 | 1012.7 |
| 20260903115504 | 91 | 313 | 7.0 | 17.0 | 0.00 | 0.00 | 0.00 | 35 | 1012.8 |
| 20260903115004 | 91 | 332 | 6.0 | 13.0 | 0.00 | 0.00 | 0.00 | 35 | 1012.9 |
| 20260903114505 | 90 | 1 | 6.0 | 13.0 | 0.00 | 0.00 | 0.00 | 36 | 1012.8 |
| 20260903114005 | 90 | 346 | 7.0 | 20.0 | 0.00 | 0.00 | 0.00 | 37 | 1012.6 |
| 20260903113005 | 90 | 2 | 8.0 | 17.0 | 0.00 | 0.00 | 0.00 | 38 | 1012.9 |
| 20260903112004 | 90 | 329 | 8.0 | 15.0 | 0.00 | 0.00 | 0.00 | 38 | 1013.1 |
| 20260903111004 | 90 | 308 | 8.0 | 15.0 | 0.00 | 0.00 | 0.00 | 38 | 1013.0 |
| 20260903110504 | 89 | 324 | 9.0 | 19.0 | 0.00 | 0.00 | 0.00 | 37 | 1013.0 |
| 20260903110004 | 89 | 345 | 9.0 | 19.0 | 0.00 | 0.00 | 0.00 | 37 | 1013.0 |
| 20260903105504 | 90 | 331 | 8.0 | 16.0 | 0.00 | 0.00 | 0.00 | 36 | 1013.2 |
| 20260903105003 | 90 | 308 | 6.0 | 16.0 | 0.00 | 0.00 | 0.00 | 37 | 1013.1 |
| 20260903104504 | 89 | 309 | 6.0 | 16.0 | 0.00 | 0.00 | 0.00 | 38 | 1013.0 |
| 20260903104005 | 89 | 312 | 8.0 | 20.0 | 0.00 | 0.00 | 0.00 | 38 | 1013.2 |
| 20260903103503 | 89 | 314 | 9.0 | 20.0 | 0.00 | 0.00 | 0.00 | 37 | 1013.2 |
| 20260903103005 | 89 | 348 | 9.0 | 19.0 | 0.00 | 0.00 | 0.00 | 37 | 1013.1 |
| 20260903102504 | 89 | 343 | 9.0 | 19.0 | 0.00 | 0.00 | 0.00 | 36 | 1013.1 |
| 20260903102004 | 89 | 309 | 8.0 | 17.0 | 0.00 | 0.00 | 0.00 | 37 | 1013.3 |
| 20260903101504 | 89 | 303 | 9.0 | 22.0 | 0.00 | 0.00 | 0.00 | 38 | 1013.2 |
| 20260903101004 | 89 | 315 | 10.0 | 22.0 | 0.00 | 0.00 | 0.00 | 38 | 1013.5 |
| 20260903100504 | 89 | 341 | 9.0 | 21.0 | 0.00 | 0.00 | 0.00 | 37 | 1013.3 |
| 20260903095005 | 90 | 336 | 7.0 | 15.0 | 0.00 | 0.00 | 0.00 | 35 | 1013.4 |
| 20260903094504 | 89 | 321 | 8.0 | 17.0 | 0.00 | 0.00 | 0.00 | 35 | 1013.4 |
| 20260903093504 | 89 | 325 | 9.0 | 19.0 | 0.00 | 0.00 | 0.00 | 35 | 1013.8 |
| 20260903092504 | 89 | 336 | 9.0 | 19.0 | 0.00 | 0.00 | 0.00 | 33 | 1013.9 |
| 20260903092004 | 89 | 334 | 9.0 | 18.0 | 0.00 | 0.00 | 0.00 | 33 | 1013.8 |
| 20260903091505 | 89 | 357 | 8.0 | 18.0 | 0.00 | 0.00 | 0.00 | 32 | 1013.6 |
| 20260903091003 | 89 | 21 | 8.0 | 16.0 | 0.00 | 0.00 | 0.00 | 33 | 1013.9 |
| 20260903090504 | 89 | 7 | 7.0 | 14.0 | 0.00 | 0.00 | 0.00 | 33 | 1014.0 |
| 20260903090005 | 88 | 325 | 7.0 | 16.0 | 0.00 | 0.00 | 0.00 | 33 | 1013.8 |
| 20260903085503 | 88 | 304 | 8.0 | 17.0 | 0.00 | 0.00 | 0.00 | 35 | 1013.9 |
| 20260903085004 | 88 | 322 | 7.0 | 17.0 | 0.00 | 0.00 | 0.00 | 35 | 1014.1 |
| 20260903084505 | 88 | 329 | 6.0 | 14.0 | 0.00 | 0.00 | 0.00 | 35 | 1014.2 |
| 20260903084004 | 88 | 338 | 7.0 | 15.0 | 0.00 | 0.00 | 0.00 | 34 | 1014.0 |
| 20260903083505 | 88 | 358 | 7.0 | 15.0 | 0.00 | 0.00 | 0.00 | 34 | 1014.0 |
| 20260903083005 | 88 | 355 | 7.0 | 15.0 | 0.00 | 0.00 | 0.00 | 35 | 1014.2 |
| 20260903082504 | 88 | 323 | 7.0 | 15.0 | 0.00 | 0.00 | 0.00 | 35 | 1014.2 |
| 20260903081004 | 88 | 325 | 5.0 | 13.0 | 0.00 | 0.00 | 0.00 | 36 | 1014.2 |
| 20260903075504 | 88 | 315 | 3.0 | 11.0 | 0.00 | 0.00 | 0.00 | 40 | 1014.1 |
| 20260903075005 | 88 | 303 | 2.0 | 11.0 | 0.00 | 0.00 | 0.00 | 39 | 1014.2 |
| 20260903074504 | 88 | 339 | 2.0 | 6.0 | 0.00 | 0.00 | 0.00 | 41 | 1013.9 |
| 20260903074004 | 87 | 18 | 2.0 | 6.0 | 0.00 | 0.00 | 0.00 | 42 | 1014.2 |
| 20260903073504 | 87 | 283 | 1.0 | 8.0 | 0.00 | 0.00 | 0.00 | 43 | 1014.2 |
| 20260903072503 | 86 | 289 | 2.0 | 7.0 | 0.00 | 0.00 | 0.00 | 44 | 1014.2 |
| 20260903072004 | 85 | 292 | 2.0 | 7.0 | 0.00 | 0.00 | 0.00 | 45 | 1014.1 |
| 20260903071504 | 85 | 286 | 2.0 | 5.0 | 0.00 | 0.00 | 0.00 | 45 | 1014.3 |
| 20260903070504 | 84 | 247 | 2.0 | 5.0 | 0.00 | 0.00 | 0.00 | 46 | 1014.4 |
| 20260903070004 | 84 | 249 | 2.0 | 5.0 | 0.00 | 0.00 | 0.00 | 46 | 1014.3 |
| 20260903065004 | 84 | 289 | 2.0 | 9.0 | 0.00 | 0.00 | 0.00 | 46 | 1014.4 |
| 20260903064504 | 83 | 270 | 1.0 | 4.0 | 0.00 | 0.00 | 0.00 | 47 | 1014.4 |
| 20260903064003 | 82 | 274 | 2.0 | 6.0 | 0.00 | 0.00 | 0.00 | 47 | 1014.3 |
| 20260903063504 | 82 | 248 | 2.0 | 6.0 | 0.00 | 0.00 | 0.00 | 46 | 1014.0 |
| 20260903062504 | 81 | 254 | 3.0 | 7.0 | 0.00 | 0.00 | 0.00 | 46 | 1014.1 |
| 20260903062004 | 81 | 247 | 2.0 | 6.0 | 0.00 | 0.00 | 0.00 | 46 | 1014.3 |
| 20260903061004 | 80 | 225 | 2.0 | 6.0 | 0.00 | 0.00 | 0.00 | 46 | 1014.6 |
| 20260903060504 | 79 | 242 | 1.0 | 4.0 | 0.00 | 0.00 | 0.00 | 46 | 1014.4 |
| 20260903060005 | 79 | 269 | 1.0 | 4.0 | 0.00 | 0.00 | 0.00 | 46 | 1014.5 |
| 20260903055504 | 78 | 281 | 1.0 | 4.0 | 0.00 | 0.00 | 0.00 | 46 | 1014.6 |
| 20260903055005 | 78 | 278 | 1.0 | 5.0 | 0.00 | 0.00 | 0.00 | 47 | 1014.6 |
| 20260903054004 | 77 | 261 | 2.0 | 7.0 | 0.00 | 0.00 | 0.00 | 46 | 1014.5 |
| 20260903053504 | 76 | 248 | 2.0 | 5.0 | 0.00 | 0.00 | 0.00 | 46 | 1014.3 |
| 20260903053004 | 76 | 241 | 2.0 | 6.0 | 0.00 | 0.00 | 0.00 | 46 | 1014.4 |
| 20260903052504 | 75 | 232 | 2.0 | 7.0 | 0.00 | 0.00 | 0.00 | 47 | 1014.4 |
| 20260903052003 | 75 | 220 | 1.0 | 7.0 | 0.00 | 0.00 | 0.00 | 48 | 1014.5 |
| 20260903051504 | 75 | 234 | 1.0 | 5.0 | 0.00 | 0.00 | 0.00 | 48 | 1014.4 |
| 20260903051004 | 74 | 242 | 2.0 | 5.0 | 0.00 | 0.00 | 0.00 | 48 | 1014.4 |
| 20260903050503 | 74 | 236 | 3.0 | 8.0 | 0.00 | 0.00 | 0.00 | 48 | 1014.6 |
| 20260903050005 | 74 | 228 | 3.0 | 8.0 | 0.00 | 0.00 | 0.00 | 48 | 1014.5 |
| 20260903045504 | 74 | 237 | 4.0 | 9.0 | 0.00 | 0.00 | 0.00 | 48 | 1014.4 |
| 20260903045003 | 73 | 254 | 4.0 | 9.0 | 0.00 | 0.00 | 0.00 | 48 | 1014.7 |
| 20260903044505 | 73 | 253 | 3.0 | 9.0 | 0.00 | 0.00 | 0.00 | 48 | 1014.7 |
| 20260903044004 | 72 | 270 | 3.0 | 9.0 | 0.00 | 0.00 | 0.00 | 49 | 1014.7 |
| 20260903043504 | 72 | 275 | 2.0 | 6.0 | 0.00 | 0.00 | 0.00 | 49 | 1014.9 |
| 20260903042504 | 71 | 225 | 2.0 | 4.0 | 0.00 | 0.00 | 0.00 | 48 | 1014.9 |
| 20260903042003 | 81 | 225 | 3.0 | 4.0 | 0.00 | 0.00 | 0.00 | 46 | 1014.3 |
| 20260903041506 | 81 | 225 | 3.0 | 4.0 | 0.00 | 0.00 | 0.00 | 46 | 1014.3 |
| 20260903041003 | 81 | 225 | 3.0 | 4.0 | 0.00 | 0.00 | 0.00 | 46 | 1014.3 |
| 20260903040505 | 81 | 225 | 3.0 | 4.0 | 0.00 | 0.00 | 0.00 | 46 | 1014.1 |
| 20260903040008 | 81 | 225 | 3.0 | 4.0 | 0.00 | 0.00 | 0.00 | 46 | 1014.2 |
| 20260903035504 | 81 | 225 | 3.0 | 4.0 | 0.00 | 0.00 | 0.00 | 46 | 1014.2 |
| 20260903035004 | 81 | 225 | 3.0 | 4.0 | 0.00 | 0.00 | 0.00 | 46 | 1014.3 |
| 20260903034505 | 81 | 225 | 3.0 | 4.0 | 0.00 | 0.00 | 0.00 | 46 | 1014.2 |
| 20260903034004 | 81 | 225 | 3.0 | 4.0 | 0.00 | 0.00 | 0.00 | 46 | 1014.2 |
| 20260903033504 | 81 | 225 | 3.0 | 4.0 | 0.00 | 0.00 | 0.00 | 46 | 1014.2 |
| 20260903033005 | 81 | 225 | 3.0 | 4.0 | 0.00 | 0.00 | 0.00 | 46 | 1014.3 |
| 20260903032504 | 81 | 225 | 3.0 | 4.0 | 0.00 | 0.00 | 0.00 | 46 | 1014.2 |
| 20260903032005 | 81 | 225 | 3.0 | 4.0 | 0.00 | 0.00 | 0.00 | 46 | 1014.1 |
| 20260903031504 | 81 | 225 | 3.0 | 4.0 | 0.00 | 0.00 | 0.00 | 46 | 1014.1 |
| 20260903030005 | 81 | 225 | 3.0 | 4.0 | 0.00 | 0.00 | 0.00 | 46 | 1014.3 |
| 20260903025004 | 81 | 225 | 3.0 | 4.0 | 0.00 | 0.00 | 0.00 | 46 | 1014.3 |
| 20260903024505 | 81 | 225 | 3.0 | 4.0 | 0.00 | 0.00 | 0.00 | 46 | 1014.2 |
| 20260903024004 | 81 | 225 | 3.0 | 4.0 | 0.00 | 0.00 | 0.00 | 46 | 1014.3 |
| 20260903023505 | 81 | 225 | 3.0 | 4.0 | 0.00 | 0.00 | 0.00 | 46 | 1014.2 |
| 20260903023004 | 81 | 225 | 3.0 | 4.0 | 0.00 | 0.00 | 0.00 | 46 | 1014.3 |
| 20260903022004 | 81 | 225 | 3.0 | 4.0 | 0.00 | 0.00 | 0.00 | 46 | 1014.2 |
| 20260903021004 | 81 | 225 | 3.0 | 4.0 | 0.00 | 0.00 | 0.00 | 46 | 1014.1 |
| 20260903020504 | 81 | 225 | 3.0 | 4.0 | 0.00 | 0.00 | 0.00 | 46 | 1014.0 |
| 20260903020004 | 81 | 225 | 3.0 | 4.0 | 0.00 | 0.00 | 0.00 | 46 | 1013.9 |
| 20260903015504 | 81 | 225 | 3.0 | 4.0 | 0.00 | 0.00 | 0.00 | 46 | 1013.9 |
| 20260903015003 | 81 | 225 | 3.0 | 4.0 | 0.00 | 0.00 | 0.00 | 46 | 1013.8 |
| 20260903014505 | 81 | 225 | 3.0 | 4.0 | 0.00 | 0.00 | 0.00 | 46 | 1013.9 |
| 20260903013005 | 81 | 225 | 3.0 | 4.0 | 0.00 | 0.00 | 0.00 | 46 | 1013.9 |
| 20260903012504 | 81 | 225 | 3.0 | 4.0 | 0.00 | 0.00 | 0.00 | 46 | 1013.9 |
| 20260903012004 | 81 | 225 | 3.0 | 4.0 | 0.00 | 0.00 | 0.00 | 46 | 1014.0 |
| 20260903011504 | 81 | 225 | 3.0 | 4.0 | 0.00 | 0.00 | 0.00 | 46 | 1013.8 |
| 20260903011004 | 81 | 225 | 3.0 | 4.0 | 0.00 | 0.00 | 0.00 | 46 | 1013.8 |
| 20260903010004 | 81 | 225 | 3.0 | 4.0 | 0.00 | 0.00 | 0.00 | 46 | 1013.8 |
| 20260903005505 | 81 | 225 | 3.0 | 4.0 | 0.00 | 0.00 | 0.00 | 46 | 1013.8 |
| 20260903005004 | 81 | 225 | 3.0 | 4.0 | 0.00 | 0.00 | 0.00 | 46 | 1014.0 |
| 20260903004504 | 81 | 225 | 3.0 | 4.0 | 0.00 | 0.00 | 0.00 | 46 | 1013.9 |
| 20260903004004 | 81 | 225 | 3.0 | 4.0 | 0.00 | 0.00 | 0.00 | 46 | 1013.9 |
| 20260903003504 | 81 | 270 | 2.0 | 4.0 | 0.00 | 0.00 | 0.00 | 33 | 1013.9 |
| 20260903003005 | 81 | 270 | 2.0 | 4.0 | 0.00 | 0.00 | 0.00 | 33 | 1013.9 |
| 20260903002004 | 81 | 270 | 2.0 | 4.0 | 0.00 | 0.00 | 0.00 | 33 | 1013.8 |
| 20260903001505 | 81 | 270 | 2.0 | 4.0 | 0.00 | 0.00 | 0.00 | 33 | 1013.8 |
| 20260903001004 | 81 | 270 | 2.0 | 4.0 | 0.00 | 0.00 | 0.00 | 33 | 1013.9 |
| 20260903000503 | 81 | 270 | 2.0 | 4.0 | 0.00 | 0.00 | 0.00 | 33 | 1013.8 |
| 20260903000005 | 81 | 270 | 2.0 | 4.0 | 0.00 | 0.00 | 0.00 | 33 | 1013.8 |
| 20260902235505 | 81 | 270 | 2.0 | 4.0 | 0.00 | 0.00 | 0.00 | 33 | 1013.8 |
| 20260902235004 | 81 | 270 | 2.0 | 4.0 | 0.00 | 0.00 | 0.00 | 33 | 1013.6 |
| 20260902234504 | 81 | 270 | 2.0 | 4.0 | 0.00 | 0.00 | 0.00 | 33 | 1013.8 |
| 20260902234004 | 81 | 270 | 2.0 | 4.0 | 0.00 | 0.00 | 0.00 | 33 | 1013.8 |
| 20260902233504 | 81 | 270 | 2.0 | 4.0 | 0.00 | 0.00 | 0.00 | 33 | 1013.9 |
| 20260902233006 | 81 | 270 | 2.0 | 4.0 | 0.00 | 0.00 | 0.00 | 33 | 1013.7 |
| 20260902232005 | 81 | 270 | 2.0 | 4.0 | 0.00 | 0.00 | 0.00 | 33 | 1014.0 |
| 20260902231505 | 81 | 270 | 2.0 | 4.0 | 0.00 | 0.00 | 0.00 | 33 | 1013.9 |
| 20260902231004 | 81 | 270 | 2.0 | 4.0 | 0.00 | 0.00 | 0.00 | 33 | 1013.9 |
| 20260902230504 | 81 | 270 | 2.0 | 4.0 | 0.00 | 0.00 | 0.00 | 33 | 1013.9 |
| 20260902230005 | 81 | 270 | 2.0 | 4.0 | 0.00 | 0.00 | 0.00 | 33 | 1013.8 |
| 20260902224504 | 81 | 270 | 2.0 | 4.0 | 0.00 | 0.00 | 0.00 | 33 | 1013.8 |
| 20260902224004 | 81 | 270 | 2.0 | 4.0 | 0.00 | 0.00 | 0.00 | 33 | 1013.9 |
| 20260902223504 | 81 | 270 | 2.0 | 4.0 | 0.00 | 0.00 | 0.00 | 33 | 1013.9 |
| 20260902223004 | 81 | 270 | 2.0 | 4.0 | 0.00 | 0.00 | 0.00 | 33 | 1013.8 |
| 20260902222504 | 81 | 270 | 2.0 | 4.0 | 0.00 | 0.00 | 0.00 | 33 | 1013.9 |
| 20260902222005 | 81 | 270 | 2.0 | 4.0 | 0.00 | 0.00 | 0.00 | 33 | 1014.0 |
| 20260902221505 | 81 | 270 | 2.0 | 4.0 | 0.00 | 0.00 | 0.00 | 33 | 1014.0 |
| 20260902221004 | 81 | 270 | 2.0 | 4.0 | 0.00 | 0.00 | 0.00 | 33 | 1014.0 |
| 20260902220004 | 81 | 270 | 2.0 | 4.0 | 0.00 | 0.00 | 0.00 | 33 | 1014.0 |
| 20260902215503 | 81 | 270 | 2.0 | 4.0 | 0.00 | 0.00 | 0.00 | 33 | 1014.0 |
| 20260902215004 | 81 | 270 | 2.0 | 4.0 | 0.00 | 0.00 | 0.00 | 33 | 1014.0 |
| 20260902214504 | 81 | 270 | 2.0 | 4.0 | 0.00 | 0.00 | 0.00 | 33 | 1014.0 |
| 20260902214004 | 81 | 270 | 2.0 | 4.0 | 0.00 | 0.00 | 0.00 | 33 | 1014.0 |
| 20260902213505 | 81 | 270 | 2.0 | 4.0 | 0.00 | 0.00 | 0.00 | 33 | 1014.0 |
| 20260902213005 | 81 | 270 | 2.0 | 4.0 | 0.00 | 0.00 | 0.00 | 33 | 1014.1 |
| 20260902212505 | 81 | 270 | 2.0 | 4.0 | 0.00 | 0.00 | 0.00 | 33 | 1014.1 |
| 20260902212004 | 81 | 270 | 2.0 | 4.0 | 0.00 | 0.00 | 0.00 | 33 | 1014.1 |
| 20260902211004 | 81 | 270 | 2.0 | 4.0 | 0.00 | 0.00 | 0.00 | 33 | 1014.3 |
| 20260902210505 | 81 | 270 | 2.0 | 4.0 | 0.00 | 0.00 | 0.00 | 33 | 1014.2 |
| 20260902210005 | 81 | 270 | 2.0 | 4.0 | 0.00 | 0.00 | 0.00 | 33 | 1014.3 |
| 20260902205504 | 81 | 270 | 2.0 | 4.0 | 0.00 | 0.00 | 0.00 | 33 | 1014.4 |
| 20260902205004 | 81 | 270 | 2.0 | 4.0 | 0.00 | 0.00 | 0.00 | 33 | 1014.3 |
| 20260902204505 | 81 | 270 | 2.0 | 4.0 | 0.00 | 0.00 | 0.00 | 33 | 1014.3 |
| 20260902204004 | 81 | 270 | 2.0 | 4.0 | 0.00 | 0.00 | 0.00 | 33 | 1014.3 |
| 20260902203505 | 81 | 270 | 2.0 | 4.0 | 0.00 | 0.00 | 0.00 | 33 | 1014.3 |
| 20260902202504 | 81 | 270 | 2.0 | 4.0 | 0.00 | 0.00 | 0.00 | 33 | 1014.4 |
| 20260902202005 | 81 | 270 | 2.0 | 4.0 | 0.00 | 0.00 | 0.00 | 33 | 1014.4 |
| 20260902201506 | 81 | 270 | 2.0 | 4.0 | 0.00 | 0.00 | 0.00 | 33 | 1014.2 |
| 20260902201004 | 81 | 270 | 2.0 | 4.0 | 0.00 | 0.00 | 0.00 | 33 | 1014.3 |
| 20260902200504 | 81 | 270 | 2.0 | 4.0 | 0.00 | 0.00 | 0.00 | 33 | 1014.3 |
| 20260902200004 | 81 | 270 | 2.0 | 4.0 | 0.00 | 0.00 | 0.00 | 33 | 1014.2 |
| 20260902195004 | 81 | 270 | 2.0 | 4.0 | 0.00 | 0.00 | 0.00 | 33 | 1014.4 |
| 20260902194504 | 81 | 270 | 2.0 | 4.0 | 0.00 | 0.00 | 0.00 | 33 | 1014.3 |
| 20260902194003 | 81 | 270 | 2.0 | 4.0 | 0.00 | 0.00 | 0.00 | 33 | 1014.4 |
| 20260902193504 | 81 | 270 | 2.0 | 4.0 | 0.00 | 0.00 | 0.00 | 33 | 1014.5 |
| 20260902193005 | 81 | 270 | 2.0 | 4.0 | 0.00 | 0.00 | 0.00 | 33 | 1014.6 |
| 20260902192504 | 81 | 270 | 2.0 | 4.0 | 0.00 | 0.00 | 0.00 | 33 | 1014.6 |
| 20260902192004 | 81 | 270 | 2.0 | 4.0 | 0.00 | 0.00 | 0.00 | 33 | 1014.4 |
| 20260902191504 | 81 | 270 | 2.0 | 4.0 | 0.00 | 0.00 | 0.00 | 33 | 1014.6 |
| 20260902191003 | 81 | 269 | 2.0 | 4.0 | 0.00 | 0.00 | 0.00 | 33 | 1014.6 |
| 20260902185004 | 86 | 135 | 1.0 | 2.0 | 0.00 | 0.00 | 0.00 | 29 | 1014.4 |
| 20260902184504 | 86 | 135 | 1.0 | 2.0 | 0.00 | 0.00 | 0.00 | 29 | 1014.4 |